When you browse on this site, cookies collect data to enhance your experience and personalize the content and advertising you see.
Visit our Privacy Policy to learn more. By continuing to use the site, you agree to this use of cookies and data.
  • în România
  • Lista ţărilor
  • Pe 7 zile
  • Temperatura apei
  • Hartă satelitară
  • Meteo pe hartă
  • Widget-uri
  • user-avatar
    Intrare

    Meteo pe oră la Lisieux

    Astăzi, 26 Iunie, Miercuri

    Timp Temperatura Precipitaţii Vânt Presiune Umiditate
    00:00 +17°C° 0 mm 2 m/s 757 mmHg 94%
    01:00 +17°C° 0.1 mm 2 m/s 757 mmHg 94%
    02:00 +17°C° 0.1 mm 2 m/s 757 mmHg 95%
    03:00 +17°C° 0.1 mm 2 m/s 757 mmHg 95%
    04:00 +18°C° 0 mm 3 m/s 757 mmHg 94%
    05:00 +18°C° 0 mm 3 m/s 757 mmHg 92%
    06:00 +19°C° 0 mm 4 m/s 758 mmHg 88%
    07:00 +21°C° 0 mm 4 m/s 758 mmHg 85%
    08:00 +22°C° 0 mm 5 m/s 758 mmHg 82%
    09:00 +25°C° 0 mm 5 m/s 758 mmHg 78%
    10:00 +26°C° 0 mm 5 m/s 758 mmHg 77%
    11:00 +27°C° 0 mm 6 m/s 758 mmHg 75%
    12:00 +29°C° 0 mm 6 m/s 758 mmHg 72%
    13:00 +29°C° 0 mm 6 m/s 757 mmHg 72%
    14:00 +29°C° 0 mm 6 m/s 757 mmHg 72%
    15:00 +29°C° 0 mm 7 m/s 757 mmHg 72%
    16:00 +29°C° 0 mm 7 m/s 757 mmHg 75%
    17:00 +28°C° 0 mm 6 m/s 757 mmHg 79%
    18:00 +27°C° 0 mm 6 m/s 757 mmHg 82%
    19:00 +26°C° 0 mm 6 m/s 757 mmHg 83%
    20:00 +23°C° 0 mm 6 m/s 758 mmHg 85%
    21:00 +22°C° 0 mm 6 m/s 758 mmHg 86%
    22:00 +21°C° 0 mm 6 m/s 758 mmHg 87%
    23:00 +20°C° 0 mm 6 m/s 758 mmHg 88%

    Mâine, 27 Iunie, Joi

    Timp Temperatura Precipitaţii Vânt Presiune Umiditate
    00:00 +20°C° 0 mm 5 m/s 758 mmHg 89%
    01:00 +19°C° 0 mm 5 m/s 758 mmHg 89%
    02:00 +19°C° 0 mm 5 m/s 758 mmHg 89%
    03:00 +19°C° 0 mm 6 m/s 758 mmHg 90%
    04:00 +19°C° 0 mm 6 m/s 758 mmHg 89%
    05:00 +19°C° 0 mm 6 m/s 758 mmHg 88%
    06:00 +20°C° 0 mm 6 m/s 758 mmHg 88%
    07:00 +21°C° 0 mm 6 m/s 758 mmHg 85%
    08:00 +23°C° 0 mm 6 m/s 759 mmHg 83%
    09:00 +25°C° 0 mm 5 m/s 759 mmHg 80%
    10:00 +26°C° 0 mm 6 m/s 759 mmHg 78%
    11:00 +27°C° 0 mm 6 m/s 759 mmHg 76%
    12:00 +28°C° 0 mm 6 m/s 759 mmHg 73%
    13:00 +28°C° 0 mm 6 m/s 759 mmHg 73%
    14:00 +28°C° 0 mm 7 m/s 758 mmHg 72%
    15:00 +29°C° 0 mm 7 m/s 758 mmHg 72%
    16:00 +28°C° 0 mm 7 m/s 758 mmHg 73%
    17:00 +27°C° 0 mm 7 m/s 758 mmHg 74%
    18:00 +26°C° 0 mm 7 m/s 757 mmHg 75%
    19:00 +23°C° 0 mm 6 m/s 758 mmHg 73%
    20:00 +22°C° 0 mm 6 m/s 758 mmHg 70%
    21:00 +21°C° 0 mm 6 m/s 758 mmHg 67%
    22:00 +20°C° 0 mm 6 m/s 758 mmHg 67%
    23:00 +20°C° 0 mm 6 m/s 758 mmHg 67%

    Poimâine, 28 Iunie, Vineri

    Timp Temperatura Precipitaţii Vânt Presiune Umiditate
    00:00 +19°C° 0 mm 5 m/s 758 mmHg 68%
    01:00 +19°C° 0 mm 5 m/s 758 mmHg 71%
    02:00 +17°C° 0 mm 5 m/s 758 mmHg 74%
    03:00 +17°C° 0 mm 5 m/s 757 mmHg 76%
    04:00 +17°C° 0 mm 5 m/s 757 mmHg 78%
    05:00 +16°C° 0 mm 6 m/s 757 mmHg 79%
    06:00 +16°C° 0 mm 6 m/s 757 mmHg 80%
    07:00 +19°C° 0 mm 6 m/s 757 mmHg 77%
    08:00 +21°C° 0 mm 5 m/s 757 mmHg 74%
    09:00 +22°C° 0 mm 5 m/s 757 mmHg 71%
    10:00 +25°C° 0 mm 5 m/s 757 mmHg 68%
    11:00 +26°C° 0 mm 6 m/s 756 mmHg 65%
    12:00 +28°C° 0 mm 6 m/s 756 mmHg 62%
    13:00 +28°C° 0 mm 6 m/s 756 mmHg 63%
    14:00 +28°C° 0 mm 6 m/s 756 mmHg 64%
    15:00 +29°C° 0 mm 5 m/s 756 mmHg 65%
    16:00 +28°C° 0 mm 5 m/s 755 mmHg 68%
    17:00 +27°C° 0 mm 5 m/s 755 mmHg 72%
    18:00 +27°C° 0 mm 5 m/s 755 mmHg 75%
    19:00 +25°C° 0 mm 5 m/s 755 mmHg 77%
    20:00 +23°C° 0 mm 5 m/s 755 mmHg 78%
    21:00 +22°C° 0 mm 5 m/s 755 mmHg 79%
    22:00 +21°C° 0 mm 4 m/s 755 mmHg 82%
    23:00 +20°C° 0 mm 4 m/s 755 mmHg 86%

    29 Iunie, Sâmbătă

    Timp Temperatura Precipitaţii Vânt Presiune Umiditate
    00:00 +19°C° 0 mm 3 m/s 754 mmHg 89%
    01:00 +18°C° 0 mm 3 m/s 754 mmHg 88%
    02:00 +18°C° 0 mm 3 m/s 754 mmHg 88%
    03:00 +17°C° 0 mm 3 m/s 753 mmHg 87%
    04:00 +18°C° 0 mm 3 m/s 753 mmHg 85%
    05:00 +18°C° 0 mm 3 m/s 753 mmHg 83%
    06:00 +19°C° 0 mm 3 m/s 753 mmHg 80%
    07:00 +21°C° 0 mm 3 m/s 753 mmHg 76%
    08:00 +24°C° 0 mm 3 m/s 753 mmHg 72%
    09:00 +26°C° 0 mm 4 m/s 753 mmHg 67%
    10:00 +27°C° 0 mm 4 m/s 753 mmHg 65%
    11:00 +28°C° 0 mm 4 m/s 752 mmHg 63%
    12:00 +30°C° 0 mm 4 m/s 752 mmHg 60%
    13:00 +30°C° 0 mm 4 m/s 752 mmHg 60%
    14:00 +32°C° 0 mm 4 m/s 752 mmHg 60%
    15:00 +33°C° 0 mm 3 m/s 751 mmHg 60%
    16:00 +31°C° 0 mm 3 m/s 751 mmHg 64%
    17:00 +30°C° 0 mm 3 m/s 751 mmHg 68%
    18:00 +30°C° 0 mm 3 m/s 751 mmHg 73%
    19:00 +27°C° 0 mm 3 m/s 751 mmHg 80%
    20:00 +24°C° 0 mm 3 m/s 752 mmHg 88%
    21:00 +20°C° 0 mm 3 m/s 752 mmHg 95%
    22:00 +19°C° 0 mm 3 m/s 752 mmHg 94%
    23:00 +19°C° 0 mm 4 m/s 752 mmHg 92%

    30 Iunie, Duminică

    Timp Temperatura Precipitaţii Vânt Presiune Umiditate
    00:00 +19°C° 0 mm 5 m/s 752 mmHg 91%
    01:00 +18°C° 0 mm 4 m/s 753 mmHg 91%
    02:00 +18°C° 0 mm 4 m/s 753 mmHg 91%
    03:00 +17°C° 0 mm 4 m/s 753 mmHg 91%
    04:00 +17°C° 0 mm 4 m/s 753 mmHg 90%
    05:00 +17°C° 0 mm 4 m/s 754 mmHg 88%
    06:00 +16°C° 0 mm 3 m/s 754 mmHg 87%
    07:00 +18°C° 0 mm 3 m/s 755 mmHg 82%
    08:00 +19°C° 0 mm 3 m/s 755 mmHg 76%
    09:00 +20°C° 0 mm 4 m/s 755 mmHg 71%
    10:00 +20°C° 0 mm 3 m/s 756 mmHg 68%
    11:00 +21°C° 0 mm 3 m/s 756 mmHg 66%
    12:00 +22°C° 0 mm 3 m/s 756 mmHg 63%
    13:00 +22°C° 0 mm 3 m/s 756 mmHg 64%
    14:00 +22°C° 0 mm 3 m/s 756 mmHg 65%
    15:00 +22°C° 0 mm 3 m/s 756 mmHg 66%
    16:00 +21°C° 0 mm 3 m/s 756 mmHg 70%
    17:00 +21°C° 0 mm 3 m/s 756 mmHg 73%
    18:00 +20°C° 0 mm 3 m/s 756 mmHg 77%
    19:00 +18°C° 0 mm 2 m/s 756 mmHg 81%
    20:00 +16°C° 0 mm 2 m/s 756 mmHg 85%
    21:00 +14°C° 0 mm 2 m/s 756 mmHg 90%
    22:00 +14°C° 0 mm 1 m/s 756 mmHg 90%
    23:00 +14°C° 0 mm 1 m/s 757 mmHg 91%

    1 Iulie, Luni

    Timp Temperatura Precipitaţii Vânt Presiune Umiditate
    00:00 +13°C° 0 mm 1 m/s 757 mmHg 92%
    01:00 +13°C° 0 mm 1 m/s 757 mmHg 93%
    02:00 +13°C° 0 mm 1 m/s 757 mmHg 94%
    03:00 +13°C° 0 mm 1 m/s 756 mmHg 95%
    04:00 +13°C° 0 mm 1 m/s 757 mmHg 93%
    05:00 +14°C° 0 mm 1 m/s 757 mmHg 92%
    06:00 +15°C° 0 mm 2 m/s 757 mmHg 90%
    07:00 +16°C° 0 mm 2 m/s 757 mmHg 86%
    08:00 +18°C° 0 mm 2 m/s 757 mmHg 82%
    09:00 +19°C° 0 mm 2 m/s 757 mmHg 78%
    10:00 +20°C° 0 mm 3 m/s 758 mmHg 75%
    11:00 +20°C° 0 mm 3 m/s 758 mmHg 72%
    12:00 +21°C° 0 mm 4 m/s 758 mmHg 70%
    13:00 +21°C° 0 mm 4 m/s 758 mmHg 69%
    14:00 +20°C° 0 mm 4 m/s 758 mmHg 68%
    15:00 +20°C° 0 mm 4 m/s 758 mmHg 67%
    16:00 +19°C° 0 mm 4 m/s 757 mmHg 69%
    17:00 +18°C° 0 mm 4 m/s 757 mmHg 71%
    18:00 +18°C° 0 mm 4 m/s 757 mmHg 74%
    19:00 +16°C° 0 mm 3 m/s 758 mmHg 80%
    20:00 +15°C° 0 mm 2 m/s 758 mmHg 86%
    21:00 +13°C° 0 mm 1 m/s 758 mmHg 93%
    22:00 +13°C° 0 mm 1 m/s 759 mmHg 93%
    23:00 +13°C° 0 mm 1 m/s 759 mmHg 93%
    Arată mai mult